Location: Sternwarte ZA, Rosenfeld-Brittheim
(48.2889°N, 8.6789°E)
Time: 20:42:47
(UTC+02:00)

ISS - Pass Details

Date: 16 July 2019
Orbit: 409 x 418 km, 51.6° (Epoch: 20 July)

Event Time Altitude Azimuth Distance (km) Brightness Sun altitude
Exits shadow 01:30:46 - 269° (W) 1,920 -0.4 -20.3°
Reaches altitude 10° 01:31:51 10° 272° (W) 1,485 -1.0 -20.3°
Maximum altitude 01:35:06 51° 350° (N) 527 -2.9 -20.3°
Drops below altitude 10° 01:38:22 10° 68° (ENE) 1,482 -0.7 -20.2°
Sets 01:40:29 0° 73° (ENE) 2,344 0.3 -20.2°
